Weather History for KMRH - January, 2014

Change the Weather History Date:

Sunday, January 26, 2014

  Actual Average Record
Temperature  
Mean Temperature 42 °F -  
Max Temperature 51 °F 55 °F 74 °F (1950)
Min Temperature 34 °F 36 °F 23 °F (1961)
Degree Days  
Heating Degree Days 22    
Moisture  
Dew Point 29 °F    
Average Humidity 55    
Maximum Humidity 74    
Minimum Humidity 34    
Precipitation  
Precipitation 0.00 in - - ()
Sea Level Pressure  
Sea Level Pressure 29.96 in    
Wind  
Wind Speed 11 mph (WSW)    
Max Wind Speed 16 mph    
Max Gust Speed 23 mph    
Visibility 10 miles    
Events      
Averages and records for this station are not official NWS values.
T = Trace of Precipitation, MM = Missing Value Source: NWS Daily Summary

Daily Weather History Graph

Daily Weather History Graph

Search for Another Location

Airport or City:

Trip Planner

Search our weather history database for the weather conditions in past years. The results will help you decide how hot, cold, wet, or windy it might be!

Date:

Astronomy

Jan. 26, 2014 Rise Set
Actual Time 7:08 AM EST 5:29 PM EST
Civil Twilight 6:42 AM EST 5:56 PM EST
Nautical Twilight 6:11 AM EST 6:27 PM EST
Astronomical Twilight 5:41 AM EST 6:57 PM EST
Moon 2:43 AM EST (1/26) 1:18 PM EST (1/26)
Length of Visible Light 11h 14m
Length of Day
10h 20m
Waning Crescent, 24% of the Moon is Illuminated
Jan 26
Waning Crescent
Jan 30
New
Feb 6
First Quarter
Feb 14
Full
Feb 22
Last Quarter

Hourly Weather History & Observations

Time (EST) Temp. Windchill Dew Point Humidity Pressure Visibility Wind Dir Wind Speed Gust Speed Precip Events Conditions
12:58 AM 41.0 °F 34.3 °F 25.0 °F 53% 29.86 in 10.0 mi West 11.5 mph - N/A   Clear
1:58 AM 41.0 °F 33.9 °F 25.0 °F 53% 29.87 in 10.0 mi West 12.7 mph - N/A   Clear
2:58 AM 41.0 °F 32.8 °F 21.9 °F 47% 29.90 in 10.0 mi West 16.1 mph 23.0 mph N/A   Clear
3:58 AM 39.9 °F 32.1 °F 21.0 °F 47% 29.92 in 10.0 mi West 13.8 mph - N/A   Clear
4:58 AM 37.9 °F 30.9 °F 21.0 °F 51% 29.94 in 10.0 mi West 10.4 mph - N/A   Clear
5:58 AM 36.0 °F 29.6 °F 21.9 °F 57% 29.97 in 10.0 mi West 8.1 mph - N/A   Clear
6:58 AM 34.0 °F 29.8 °F 21.9 °F 61% 29.99 in 10.0 mi NW 4.6 mph - N/A   Clear
7:58 AM 36.0 °F - 24.1 °F 62% 30.02 in 10.0 mi Calm Calm - N/A   Clear
8:58 AM 39.9 °F 37.8 °F 23.0 °F 51% 30.03 in 10.0 mi NW 3.5 mph - N/A   Clear
9:58 AM 44.1 °F 40.8 °F 21.9 °F 42% 30.03 in 10.0 mi Variable 5.8 mph - N/A   Clear
10:58 AM 46.0 °F 44.8 °F 19.0 °F 34% 30.04 in 10.0 mi Variable 3.5 mph - N/A   Clear
11:58 AM 48.0 °F - 23.0 °F 37% 29.99 in 10.0 mi SSW 5.8 mph - N/A   Clear
12:58 PM 46.9 °F - 21.9 °F 37% 29.97 in 10.0 mi South 9.2 mph - N/A   Clear
1:58 PM 48.9 °F - 30.0 °F 48% 29.96 in 10.0 mi South 13.8 mph - N/A   Clear
2:58 PM 50.0 °F - 35.1 °F 57% 29.94 in 10.0 mi SSW 16.1 mph - N/A   Clear
3:58 PM 51.1 °F - 35.1 °F 54% 29.94 in 10.0 mi SSW 15.0 mph - N/A   Clear
4:58 PM 50.0 °F - 37.9 °F 63% 29.94 in 10.0 mi SSW 16.1 mph - N/A   Clear
5:58 PM 50.0 °F - 39.0 °F 66% 29.94 in 10.0 mi SW 15.0 mph - N/A   Clear
6:58 PM 50.0 °F - 37.9 °F 63% 29.94 in 10.0 mi SW 13.8 mph - N/A   Clear
7:58 PM 50.0 °F - 37.0 °F 61% 29.95 in 10.0 mi WSW 12.7 mph - N/A   Clear
8:58 PM 50.0 °F - 37.9 °F 63% 29.96 in 10.0 mi WSW 11.5 mph - N/A   Clear
9:58 PM 48.9 °F - 39.9 °F 71% 29.96 in 10.0 mi WSW 10.4 mph - N/A   Clear
10:58 PM 48.9 °F - 41.0 °F 74% 29.98 in 10.0 mi WSW 9.2 mph - N/A   Clear
11:58 PM 48.9 °F - 41.0 °F 74% 29.96 in 10.0 mi WSW 8.1 mph - N/A   Clear